Year,Month,Day,Hour,Minute,Value (Times are PST for temperature in C)
2015,08,24,00,00,16.70
2015,08,24,00,01,16.70
2015,08,24,00,02,16.70
2015,08,24,00,03,16.60
2015,08,24,00,04,16.60
2015,08,24,00,05,16.60
2015,08,24,00,06,16.60
2015,08,24,00,07,16.70
2015,08,24,00,08,16.70
2015,08,24,00,09,16.70
2015,08,24,00,10,16.70
2015,08,24,00,11,16.60
2015,08,24,00,12,16.60
2015,08,24,00,13,16.60
2015,08,24,00,14,16.50
2015,08,24,00,15,16.50
2015,08,24,00,16,16.40
2015,08,24,00,17,16.40
2015,08,24,00,18,16.40
2015,08,24,00,19,16.40
2015,08,24,00,20,16.40
2015,08,24,00,21,16.30
2015,08,24,00,22,16.30
2015,08,24,00,23,16.30
2015,08,24,00,24,16.30
2015,08,24,00,25,16.30
2015,08,24,00,26,16.30
2015,08,24,00,27,16.30
2015,08,24,00,28,16.30
2015,08,24,00,29,16.30
2015,08,24,00,30,16.30
2015,08,24,00,31,16.30
2015,08,24,00,32,16.30
2015,08,24,00,33,16.30
2015,08,24,00,34,16.30
2015,08,24,00,35,16.30
2015,08,24,00,36,16.30
2015,08,24,00,37,16.30
2015,08,24,00,38,16.30
2015,08,24,00,39,16.30
2015,08,24,00,40,16.30
2015,08,24,00,41,16.20
2015,08,24,00,42,16.20
2015,08,24,00,43,16.20
2015,08,24,00,44,16.20
2015,08,24,00,45,16.20
2015,08,24,00,46,16.20
2015,08,24,00,47,16.20
2015,08,24,00,48,16.20
2015,08,24,00,49,16.10
2015,08,24,00,50,16.20
2015,08,24,00,51,16.20
2015,08,24,00,52,16.10
2015,08,24,00,53,16.10
2015,08,24,00,54,16.10
2015,08,24,00,55,16.10
2015,08,24,00,56,16.10
2015,08,24,00,57,16.10
2015,08,24,00,58,16.00
2015,08,24,00,59,16.00
2015,08,24,01,00,16.00
2015,08,24,01,01,15.90
2015,08,24,01,02,15.90
2015,08,24,01,03,15.90
2015,08,24,01,04,15.90
2015,08,24,01,05,15.90
2015,08,24,01,06,15.90
2015,08,24,01,07,15.90
2015,08,24,01,08,15.80
2015,08,24,01,09,15.90
2015,08,24,01,10,15.80
2015,08,24,01,11,15.80
2015,08,24,01,12,15.80
2015,08,24,01,13,15.80
2015,08,24,01,14,15.80
2015,08,24,01,15,15.80
2015,08,24,01,16,15.80
2015,08,24,01,17,15.80
2015,08,24,01,18,15.80
2015,08,24,01,19,15.80
2015,08,24,01,20,15.80
2015,08,24,01,21,15.80
2015,08,24,01,22,15.80
2015,08,24,01,23,15.70
2015,08,24,01,24,15.80
2015,08,24,01,25,15.70
2015,08,24,01,26,15.70
2015,08,24,01,27,15.70
2015,08,24,01,28,15.70
2015,08,24,01,29,15.70
2015,08,24,01,30,15.70
2015,08,24,01,31,15.70
2015,08,24,01,32,15.70
2015,08,24,01,33,15.70
2015,08,24,01,34,15.70
2015,08,24,01,35,15.70
2015,08,24,01,36,15.70
2015,08,24,01,37,15.70
2015,08,24,01,38,15.70
2015,08,24,01,39,15.60
2015,08,24,01,40,15.60
2015,08,24,01,41,15.60
2015,08,24,01,42,15.60
2015,08,24,01,43,15.60
2015,08,24,01,44,15.60
2015,08,24,01,45,15.60
2015,08,24,01,46,15.60
2015,08,24,01,47,15.60
2015,08,24,01,48,15.60
2015,08,24,01,49,15.60
2015,08,24,01,50,15.60
2015,08,24,01,51,15.60
2015,08,24,01,52,15.60
2015,08,24,01,53,15.70
2015,08,24,01,54,15.70
2015,08,24,01,55,15.80
2015,08,24,01,56,15.80
2015,08,24,01,57,15.80
2015,08,24,01,58,15.70
2015,08,24,01,59,15.70
2015,08,24,02,00,15.70
2015,08,24,02,01,15.70
2015,08,24,02,02,15.60
2015,08,24,02,03,15.60
2015,08,24,02,04,15.60
2015,08,24,02,05,15.60
2015,08,24,02,06,15.60
2015,08,24,02,07,15.50
2015,08,24,02,08,15.50
2015,08,24,02,09,15.50
2015,08,24,02,10,15.60
2015,08,24,02,11,15.60
2015,08,24,02,12,15.50
2015,08,24,02,13,15.50
2015,08,24,02,14,15.50
2015,08,24,02,15,15.50
2015,08,24,02,16,15.40
2015,08,24,02,17,15.40
2015,08,24,02,18,15.40
2015,08,24,02,19,15.30
2015,08,24,02,20,15.30
2015,08,24,02,21,15.30
2015,08,24,02,22,15.30
2015,08,24,02,23,15.30
2015,08,24,02,24,15.30
2015,08,24,02,25,15.30
2015,08,24,02,26,15.40
2015,08,24,02,27,15.40
2015,08,24,02,28,15.40
2015,08,24,02,29,15.40
2015,08,24,02,30,15.40
2015,08,24,02,31,15.30
2015,08,24,02,32,15.40
2015,08,24,02,33,15.40
2015,08,24,02,34,15.40
2015,08,24,02,35,15.40
2015,08,24,02,36,15.40
2015,08,24,02,37,15.30
2015,08,24,02,38,15.30
2015,08,24,02,39,15.30
2015,08,24,02,40,15.30
2015,08,24,02,41,15.20
2015,08,24,02,42,15.20
2015,08,24,02,43,15.20
2015,08,24,02,44,15.20
2015,08,24,02,45,15.10
2015,08,24,02,46,15.10
2015,08,24,02,47,15.10
2015,08,24,02,48,15.10
2015,08,24,02,49,15.10
2015,08,24,02,50,15.00
2015,08,24,02,51,15.00
2015,08,24,02,52,15.00
2015,08,24,02,53,15.00
2015,08,24,02,54,15.00
2015,08,24,02,55,15.00
2015,08,24,02,56,15.00
2015,08,24,02,57,15.00
2015,08,24,02,58,15.00
2015,08,24,02,59,14.90
2015,08,24,03,00,14.90
2015,08,24,03,01,14.90
2015,08,24,03,02,14.90
2015,08,24,03,03,14.90
2015,08,24,03,04,14.90
2015,08,24,03,05,14.90
2015,08,24,03,06,14.90
2015,08,24,03,07,14.90
2015,08,24,03,08,14.90
2015,08,24,03,09,14.90
2015,08,24,03,10,14.80
2015,08,24,03,11,14.80
2015,08,24,03,12,14.80
2015,08,24,03,13,14.80
2015,08,24,03,14,14.80
2015,08,24,03,15,14.80
2015,08,24,03,16,14.90
2015,08,24,03,17,14.90
2015,08,24,03,18,14.90
2015,08,24,03,19,14.80
2015,08,24,03,20,14.80
2015,08,24,03,21,14.80
2015,08,24,03,22,14.80
2015,08,24,03,23,14.80
2015,08,24,03,24,14.70
2015,08,24,03,25,14.60
2015,08,24,03,26,14.60
2015,08,24,03,27,14.50
2015,08,24,03,28,14.40
2015,08,24,03,29,14.40
2015,08,24,03,30,14.30
2015,08,24,03,31,14.30
2015,08,24,03,32,14.20
2015,08,24,03,33,14.10
2015,08,24,03,34,14.10
2015,08,24,03,35,14.00
2015,08,24,03,36,13.90
2015,08,24,03,37,13.80
2015,08,24,03,38,13.80
2015,08,24,03,39,13.70
2015,08,24,03,40,13.60
2015,08,24,03,41,13.60
2015,08,24,03,42,13.50
2015,08,24,03,43,13.40
2015,08,24,03,44,13.40
2015,08,24,03,45,13.30
2015,08,24,03,46,13.30
2015,08,24,03,47,13.20
2015,08,24,03,48,13.10
2015,08,24,03,49,13.10
2015,08,24,03,50,13.10
2015,08,24,03,51,13.00
2015,08,24,03,52,13.00
2015,08,24,03,53,12.90
2015,08,24,03,54,12.90
2015,08,24,03,55,12.80
2015,08,24,03,56,12.80
2015,08,24,03,57,12.80
2015,08,24,03,58,12.80
2015,08,24,03,59,12.80
2015,08,24,04,00,12.80
2015,08,24,04,01,12.70
2015,08,24,04,02,12.70
2015,08,24,04,03,12.70
2015,08,24,04,04,12.70
2015,08,24,04,05,12.70
2015,08,24,04,06,12.60
2015,08,24,04,07,12.60
2015,08,24,04,08,12.60
2015,08,24,04,09,12.50
2015,08,24,04,10,12.50
2015,08,24,04,11,12.40
2015,08,24,04,12,12.40
2015,08,24,04,13,12.40
2015,08,24,04,14,12.30
2015,08,24,04,15,12.30
2015,08,24,04,16,12.30
2015,08,24,04,17,12.30
2015,08,24,04,18,12.20
2015,08,24,04,19,12.20
2015,08,24,04,20,12.20
2015,08,24,04,21,12.10
2015,08,24,04,22,12.10
2015,08,24,04,23,12.00
2015,08,24,04,24,12.00
2015,08,24,04,25,11.90
2015,08,24,04,26,11.90
2015,08,24,04,27,11.90
2015,08,24,04,28,11.80
2015,08,24,04,29,11.80
2015,08,24,04,30,11.80
2015,08,24,04,31,11.80
2015,08,24,04,32,11.70
2015,08,24,04,33,11.70
2015,08,24,04,34,11.70
2015,08,24,04,35,11.60
2015,08,24,04,36,11.60
2015,08,24,04,37,11.60
2015,08,24,04,38,11.50
2015,08,24,04,39,11.50
2015,08,24,04,40,11.50
2015,08,24,04,41,11.40
2015,08,24,04,42,11.40
2015,08,24,04,43,11.40
2015,08,24,04,44,11.40
2015,08,24,04,45,11.40
2015,08,24,04,46,11.30
2015,08,24,04,47,11.30
2015,08,24,04,48,11.30
2015,08,24,04,49,11.20
2015,08,24,04,50,11.20
2015,08,24,04,51,11.20
2015,08,24,04,52,11.20
2015,08,24,04,53,11.10
2015,08,24,04,54,11.10
2015,08,24,04,55,11.10
2015,08,24,04,56,11.10
2015,08,24,04,57,11.00
2015,08,24,04,58,11.00
2015,08,24,04,59,11.00
2015,08,24,05,00,10.90
2015,08,24,05,01,10.90
2015,08,24,05,02,10.90
2015,08,24,05,03,10.90
2015,08,24,05,04,10.90
2015,08,24,05,05,10.80
2015,08,24,05,06,10.80
2015,08,24,05,07,10.80
2015,08,24,05,08,10.80
2015,08,24,05,09,10.80
2015,08,24,05,10,10.80
2015,08,24,05,11,10.80
2015,08,24,05,12,10.80
2015,08,24,05,13,10.80
2015,08,24,05,14,10.70
2015,08,24,05,15,10.70
2015,08,24,05,16,10.70
2015,08,24,05,17,10.70
2015,08,24,05,18,10.60
2015,08,24,05,19,10.60
2015,08,24,05,20,10.60
2015,08,24,05,21,10.50
2015,08,24,05,22,10.50
2015,08,24,05,23,10.40
2015,08,24,05,24,10.40
2015,08,24,05,25,10.40
2015,08,24,05,26,10.40
2015,08,24,05,27,10.40
2015,08,24,05,28,10.30
2015,08,24,05,29,10.30
2015,08,24,05,30,10.30
2015,08,24,05,31,10.30
2015,08,24,05,32,10.30
2015,08,24,05,33,10.30
2015,08,24,05,34,10.20
2015,08,24,05,35,10.20
2015,08,24,05,36,10.20
2015,08,24,05,37,10.20
2015,08,24,05,38,10.20
2015,08,24,05,39,10.20
2015,08,24,05,40,10.20
2015,08,24,05,41,10.20
2015,08,24,05,42,10.20
2015,08,24,05,43,10.20
2015,08,24,05,44,10.20
2015,08,24,05,45,10.20
2015,08,24,05,46,10.20
2015,08,24,05,47,10.20
2015,08,24,05,48,10.20
2015,08,24,05,49,10.10
2015,08,24,05,50,10.10
2015,08,24,05,51,10.10
2015,08,24,05,52,10.10
2015,08,24,05,53,10.10
2015,08,24,05,54,10.10
2015,08,24,05,55,10.10
2015,08,24,05,56,10.10
2015,08,24,05,57,10.10
2015,08,24,05,58,10.10
2015,08,24,05,59,10.10
2015,08,24,06,00,10.10
2015,08,24,06,01,10.10
2015,08,24,06,02,10.10
2015,08,24,06,03,10.10
2015,08,24,06,04,10.10
2015,08,24,06,05,10.10
2015,08,24,06,06,10.00
2015,08,24,06,07,10.00
2015,08,24,06,08,10.00
2015,08,24,06,09,10.00
2015,08,24,06,10,10.00
2015,08,24,06,11,10.00
2015,08,24,06,12,9.90
2015,08,24,06,13,9.90
2015,08,24,06,14,9.90
2015,08,24,06,15,9.90
2015,08,24,06,16,9.90
2015,08,24,06,17,9.90
2015,08,24,06,18,9.90
2015,08,24,06,19,9.90
2015,08,24,06,20,9.90
2015,08,24,06,21,9.90
2015,08,24,06,22,9.80
2015,08,24,06,23,9.80
2015,08,24,06,24,9.80
2015,08,24,06,25,9.80
2015,08,24,06,26,9.80
2015,08,24,06,27,9.80
2015,08,24,06,28,9.80
2015,08,24,06,29,9.80
2015,08,24,06,30,9.70
2015,08,24,06,31,9.70
2015,08,24,06,32,9.70
2015,08,24,06,33,9.70
2015,08,24,06,34,9.80
2015,08,24,06,35,9.70
2015,08,24,06,36,9.70
2015,08,24,06,37,9.70
2015,08,24,06,38,9.70
2015,08,24,06,39,9.70
2015,08,24,06,40,9.70
2015,08,24,06,41,9.70
2015,08,24,06,42,9.70
2015,08,24,06,43,9.70
2015,08,24,06,44,9.70
2015,08,24,06,45,9.70
2015,08,24,06,46,9.70
2015,08,24,06,47,9.70
2015,08,24,06,48,9.70
2015,08,24,06,49,9.70
2015,08,24,06,50,9.80
2015,08,24,06,51,9.80
2015,08,24,06,52,9.80
2015,08,24,06,53,9.80
2015,08,24,06,54,9.70
2015,08,24,06,55,9.70
2015,08,24,06,56,9.70
2015,08,24,06,57,9.70
2015,08,24,06,58,9.70
2015,08,24,06,59,9.70
2015,08,24,07,00,9.70
2015,08,24,07,01,9.70
2015,08,24,07,02,9.70
2015,08,24,07,03,9.60
2015,08,24,07,04,9.60
2015,08,24,07,05,9.60
2015,08,24,07,06,9.60
2015,08,24,07,07,9.50
2015,08,24,07,08,9.50
2015,08,24,07,09,9.50
2015,08,24,07,10,9.50
2015,08,24,07,11,9.50
2015,08,24,07,12,9.50
2015,08,24,07,13,9.50
2015,08,24,07,14,9.50
2015,08,24,07,15,9.50
2015,08,24,07,16,9.40
2015,08,24,07,17,9.40
2015,08,24,07,18,9.40
2015,08,24,07,19,9.40
2015,08,24,07,20,9.40
2015,08,24,07,21,9.40
2015,08,24,07,22,9.40
2015,08,24,07,23,9.40
2015,08,24,07,24,9.40
2015,08,24,07,25,9.40
2015,08,24,07,26,9.40
2015,08,24,07,27,9.40
2015,08,24,07,28,9.50
2015,08,24,07,29,9.50
2015,08,24,07,30,9.50
2015,08,24,07,31,9.50
2015,08,24,07,32,9.50
2015,08,24,07,33,9.50
2015,08,24,07,34,9.50
2015,08,24,07,35,9.50
2015,08,24,07,36,9.50
2015,08,24,07,37,9.60
2015,08,24,07,38,9.60
2015,08,24,07,39,9.60
2015,08,24,07,40,9.60
2015,08,24,07,41,9.60
2015,08,24,07,42,9.60
2015,08,24,07,43,9.70
2015,08,24,07,44,9.70
2015,08,24,07,45,9.70
2015,08,24,07,46,9.70
2015,08,24,07,47,9.70
2015,08,24,07,48,9.70
2015,08,24,07,49,9.70
2015,08,24,07,50,9.70
2015,08,24,07,51,9.70
2015,08,24,07,52,9.70
2015,08,24,07,53,9.70
2015,08,24,07,54,9.70
2015,08,24,07,55,9.80
2015,08,24,07,56,9.80
2015,08,24,07,57,9.80
2015,08,24,07,58,9.80
2015,08,24,07,59,9.80
2015,08,24,08,00,9.80
2015,08,24,08,01,9.80
2015,08,24,08,02,9.80
2015,08,24,08,03,9.80
2015,08,24,08,04,9.80
2015,08,24,08,05,9.80
2015,08,24,08,06,9.80
2015,08,24,08,07,9.80
2015,08,24,08,08,9.80
2015,08,24,08,09,9.80
2015,08,24,08,10,9.80
2015,08,24,08,11,9.80
2015,08,24,08,12,9.90
2015,08,24,08,13,9.90
2015,08,24,08,14,9.90
2015,08,24,08,15,9.90
2015,08,24,08,16,9.90
2015,08,24,08,17,9.90
2015,08,24,08,18,9.90
2015,08,24,08,19,9.90
2015,08,24,08,20,9.90
2015,08,24,08,21,10.00
2015,08,24,08,22,10.00
2015,08,24,08,23,10.00
2015,08,24,08,24,10.00
2015,08,24,08,25,10.00
2015,08,24,08,26,10.00
2015,08,24,08,27,10.00
2015,08,24,08,28,10.10
2015,08,24,08,29,10.10
2015,08,24,08,30,10.10
2015,08,24,08,31,10.20
2015,08,24,08,32,10.20
2015,08,24,08,33,10.30
2015,08,24,08,34,10.30
2015,08,24,08,35,10.30
2015,08,24,08,36,10.30
2015,08,24,08,37,10.40
2015,08,24,08,38,10.40
2015,08,24,08,39,10.40
2015,08,24,08,40,10.50
2015,08,24,08,41,10.50
2015,08,24,08,42,10.50
2015,08,24,08,43,10.60
2015,08,24,08,44,10.60
2015,08,24,08,45,10.60
2015,08,24,08,46,10.70
2015,08,24,08,47,10.70
2015,08,24,08,48,10.70
2015,08,24,08,49,10.70
2015,08,24,08,50,10.70
2015,08,24,08,51,10.80
2015,08,24,08,52,10.80
2015,08,24,08,53,10.80
2015,08,24,08,54,10.80
2015,08,24,08,55,10.80
2015,08,24,08,56,10.80
2015,08,24,08,57,10.80
2015,08,24,08,58,10.90
2015,08,24,08,59,10.90
2015,08,24,09,00,10.90
2015,08,24,09,01,11.00
2015,08,24,09,02,11.00
2015,08,24,09,03,11.10
2015,08,24,09,04,11.10
2015,08,24,09,05,11.10
2015,08,24,09,06,11.20
2015,08,24,09,07,11.20
2015,08,24,09,08,11.20
2015,08,24,09,09,11.30
2015,08,24,09,10,11.30
2015,08,24,09,11,11.30
2015,08,24,09,12,11.40
2015,08,24,09,13,11.40
2015,08,24,09,14,11.50
2015,08,24,09,15,11.60
2015,08,24,09,16,11.60
2015,08,24,09,17,11.60
2015,08,24,09,18,11.70
2015,08,24,09,19,11.70
2015,08,24,09,20,11.80
2015,08,24,09,21,11.80
2015,08,24,09,22,11.90
2015,08,24,09,23,12.00
2015,08,24,09,24,12.10
2015,08,24,09,25,12.20
2015,08,24,09,26,12.20
2015,08,24,09,27,12.30
2015,08,24,09,28,12.30
2015,08,24,09,29,12.40
2015,08,24,09,30,12.40
2015,08,24,09,31,12.50
2015,08,24,09,32,12.50
2015,08,24,09,33,12.60
2015,08,24,09,34,12.60
2015,08,24,09,35,12.70
2015,08,24,09,36,12.80
2015,08,24,09,37,12.80
2015,08,24,09,38,12.90
2015,08,24,09,39,13.00
2015,08,24,09,40,13.10
2015,08,24,09,41,13.10
2015,08,24,09,42,13.20
2015,08,24,09,43,13.20
2015,08,24,09,44,13.20
2015,08,24,09,45,13.30
2015,08,24,09,46,13.30
2015,08,24,09,47,13.40
2015,08,24,09,48,13.40
2015,08,24,09,49,13.40
2015,08,24,09,50,13.50
2015,08,24,09,51,13.60
2015,08,24,09,52,13.60
2015,08,24,09,53,13.70
2015,08,24,09,54,13.80
2015,08,24,09,55,13.80
2015,08,24,09,56,13.90
2015,08,24,09,57,13.90
2015,08,24,09,58,14.00
2015,08,24,09,59,14.00
2015,08,24,10,00,14.10
2015,08,24,10,01,14.20
2015,08,24,10,02,14.20
2015,08,24,10,03,14.30
2015,08,24,10,04,14.40
2015,08,24,10,05,14.50
2015,08,24,10,06,14.50
2015,08,24,10,07,14.60
2015,08,24,10,08,14.70
2015,08,24,10,09,14.80
2015,08,24,10,10,14.80
2015,08,24,10,11,14.90
2015,08,24,10,12,15.00
2015,08,24,10,13,15.00
2015,08,24,10,14,15.10
2015,08,24,10,15,15.20
2015,08,24,10,16,15.20
2015,08,24,10,17,15.30
2015,08,24,10,18,15.30
2015,08,24,10,19,15.40
2015,08,24,10,20,15.50
2015,08,24,10,21,15.50
2015,08,24,10,22,15.60
2015,08,24,10,23,15.70
2015,08,24,10,24,15.70
2015,08,24,10,25,15.80
2015,08,24,10,26,15.80
2015,08,24,10,27,15.90
2015,08,24,10,28,15.90
2015,08,24,10,29,15.90
2015,08,24,10,30,16.00
2015,08,24,10,31,16.00
2015,08,24,10,32,16.00
2015,08,24,10,33,16.10
2015,08,24,10,34,16.10
2015,08,24,10,35,16.10
2015,08,24,10,36,16.10
2015,08,24,10,37,16.20
2015,08,24,10,38,16.20
2015,08,24,10,39,16.20
2015,08,24,10,40,16.30
2015,08,24,10,41,16.30
2015,08,24,10,42,16.30
2015,08,24,10,43,16.40
2015,08,24,10,44,16.40
2015,08,24,10,45,16.40
2015,08,24,10,46,16.50
2015,08,24,10,47,16.60
2015,08,24,10,48,16.60
2015,08,24,10,49,16.60
2015,08,24,10,50,16.60
2015,08,24,10,51,16.70
2015,08,24,10,52,16.70
2015,08,24,10,53,16.70
2015,08,24,10,54,16.80
2015,08,24,10,55,16.80
2015,08,24,10,56,16.80
2015,08,24,10,57,16.90
2015,08,24,10,58,16.90
2015,08,24,10,59,17.00
2015,08,24,11,00,17.10
2015,08,24,11,01,17.20
2015,08,24,11,02,17.30
2015,08,24,11,03,17.40
2015,08,24,11,04,17.40
2015,08,24,11,05,17.50
2015,08,24,11,06,17.60
2015,08,24,11,07,17.70
2015,08,24,11,08,17.70
2015,08,24,11,09,17.80
2015,08,24,11,10,17.80
2015,08,24,11,11,17.80
2015,08,24,11,12,17.90
2015,08,24,11,13,17.90
2015,08,24,11,14,18.00
2015,08,24,11,15,18.00
2015,08,24,11,16,18.10
2015,08,24,11,17,18.20
2015,08,24,11,18,18.20
2015,08,24,11,19,18.30
2015,08,24,11,20,18.30
2015,08,24,11,21,18.30
2015,08,24,11,22,18.30
2015,08,24,11,23,18.40
2015,08,24,11,24,18.40
2015,08,24,11,25,18.50
2015,08,24,11,26,18.50
2015,08,24,11,27,18.60
2015,08,24,11,28,18.70
2015,08,24,11,29,18.80
2015,08,24,11,30,18.90
2015,08,24,11,31,19.00
2015,08,24,11,32,19.00
2015,08,24,11,33,19.00
2015,08,24,11,34,19.10
2015,08,24,11,35,19.10
2015,08,24,11,36,19.20
2015,08,24,11,37,19.30
2015,08,24,11,38,19.40
2015,08,24,11,39,19.40
2015,08,24,11,40,19.40
2015,08,24,11,41,19.40
2015,08,24,11,42,19.40
2015,08,24,11,43,19.50
2015,08,24,11,44,19.50
2015,08,24,11,45,19.50
2015,08,24,11,46,19.60
2015,08,24,11,47,19.60
2015,08,24,11,48,19.70
2015,08,24,11,49,19.70
2015,08,24,11,50,19.80
2015,08,24,11,51,19.80
2015,08,24,11,52,19.80
2015,08,24,11,53,19.80
2015,08,24,11,54,19.80
2015,08,24,11,55,19.80
2015,08,24,11,56,19.80
2015,08,24,11,57,19.80
2015,08,24,11,58,19.70
2015,08,24,11,59,19.70
2015,08,24,12,00,19.70
2015,08,24,12,01,19.70
2015,08,24,12,02,19.80
2015,08,24,12,03,19.80
2015,08,24,12,04,19.80
2015,08,24,12,05,19.80
2015,08,24,12,06,19.80
2015,08,24,12,07,19.80
2015,08,24,12,08,19.80
2015,08,24,12,09,19.80
2015,08,24,12,10,19.80
2015,08,24,12,11,19.80
2015,08,24,12,12,19.80
2015,08,24,12,13,19.90
2015,08,24,12,14,19.90
2015,08,24,12,15,20.00
2015,08,24,12,16,20.00
2015,08,24,12,17,20.00
2015,08,24,12,18,20.10
2015,08,24,12,19,20.00
2015,08,24,12,20,20.00
2015,08,24,12,21,19.90
2015,08,24,12,22,19.90
2015,08,24,12,23,19.80
2015,08,24,12,24,19.80
2015,08,24,12,25,19.70
2015,08,24,12,26,19.60
2015,08,24,12,27,19.50
2015,08,24,12,28,19.50
2015,08,24,12,29,19.50
2015,08,24,12,30,19.50
2015,08,24,12,31,19.60
2015,08,24,12,32,19.60
2015,08,24,12,33,19.60
2015,08,24,12,34,19.70
2015,08,24,12,35,19.70
2015,08,24,12,36,19.80
2015,08,24,12,37,19.80
2015,08,24,12,38,19.90
2015,08,24,12,39,20.00
2015,08,24,12,40,20.00
2015,08,24,12,41,20.10
2015,08,24,12,42,20.10
2015,08,24,12,43,20.20
2015,08,24,12,44,20.20
2015,08,24,12,45,20.20
2015,08,24,12,46,20.20
2015,08,24,12,47,20.20
2015,08,24,12,48,20.20
2015,08,24,12,49,20.20
2015,08,24,12,50,20.20
2015,08,24,12,51,20.20
2015,08,24,12,52,20.20
2015,08,24,12,53,20.30
2015,08,24,12,54,20.30
2015,08,24,12,55,20.30
2015,08,24,12,56,20.30
2015,08,24,12,57,20.30
2015,08,24,12,58,20.30
2015,08,24,12,59,20.40
2015,08,24,13,00,20.40
2015,08,24,13,01,20.50
2015,08,24,13,02,20.50
2015,08,24,13,03,20.60
2015,08,24,13,04,20.60
2015,08,24,13,05,20.60
2015,08,24,13,06,20.70
2015,08,24,13,07,20.70
2015,08,24,13,08,20.70
2015,08,24,13,09,20.80
2015,08,24,13,10,20.80
2015,08,24,13,11,20.80
2015,08,24,13,12,20.80
2015,08,24,13,13,20.80
2015,08,24,13,14,20.80
2015,08,24,13,15,20.80
2015,08,24,13,16,20.80
2015,08,24,13,17,20.80
2015,08,24,13,18,20.80
2015,08,24,13,19,20.80
2015,08,24,13,20,20.80
2015,08,24,13,21,20.80
2015,08,24,13,22,20.80
2015,08,24,13,23,20.90
2015,08,24,13,24,20.90
2015,08,24,13,25,20.90
2015,08,24,13,26,21.00
2015,08,24,13,27,21.10
2015,08,24,13,28,21.20
2015,08,24,13,29,21.20
2015,08,24,13,30,21.10
2015,08,24,13,31,21.10
2015,08,24,13,32,21.10
2015,08,24,13,33,21.10
2015,08,24,13,34,21.10
2015,08,24,13,35,21.10
2015,08,24,13,36,21.10
2015,08,24,13,37,21.10
2015,08,24,13,38,21.10
2015,08,24,13,39,21.10
2015,08,24,13,40,21.20
2015,08,24,13,41,21.20
2015,08,24,13,42,21.20
2015,08,24,13,43,21.20
2015,08,24,13,44,21.20
2015,08,24,13,45,21.20
2015,08,24,13,46,21.20
2015,08,24,13,47,21.30
2015,08,24,13,48,21.30
2015,08,24,13,49,21.40
2015,08,24,13,50,21.40
2015,08,24,13,51,21.50
2015,08,24,13,52,21.50
2015,08,24,13,53,21.50
2015,08,24,13,54,21.40
2015,08,24,13,55,21.40
2015,08,24,13,56,21.50
2015,08,24,13,57,21.50
2015,08,24,13,58,21.60
2015,08,24,13,59,21.60
2015,08,24,14,00,21.60
2015,08,24,14,01,21.50
2015,08,24,14,02,21.50
2015,08,24,14,03,21.50
2015,08,24,14,04,21.40
2015,08,24,14,05,21.40
2015,08,24,14,06,21.40
2015,08,24,14,07,21.40
2015,08,24,14,08,21.40
2015,08,24,14,09,21.40
2015,08,24,14,10,21.40
2015,08,24,14,11,21.50
2015,08,24,14,12,21.60
2015,08,24,14,13,21.60
2015,08,24,14,14,21.60
2015,08,24,14,15,21.60
2015,08,24,14,16,21.50
2015,08,24,14,17,21.50
2015,08,24,14,18,21.50
2015,08,24,14,19,21.60
2015,08,24,14,20,21.60
2015,08,24,14,21,21.50
2015,08,24,14,22,21.50
2015,08,24,14,23,21.50
2015,08,24,14,24,21.50
2015,08,24,14,25,21.50
2015,08,24,14,26,21.50
2015,08,24,14,27,21.40
2015,08,24,14,28,21.40
2015,08,24,14,29,21.40
2015,08,24,14,30,21.30
2015,08,24,14,31,21.30
2015,08,24,14,32,21.30
2015,08,24,14,33,21.30
2015,08,24,14,34,21.30
2015,08,24,14,35,21.30
2015,08,24,14,36,21.30
2015,08,24,14,37,21.30
2015,08,24,14,38,21.30
2015,08,24,14,39,21.30
2015,08,24,14,40,21.30
2015,08,24,14,41,21.30
2015,08,24,14,42,21.30
2015,08,24,14,43,21.30
2015,08,24,14,44,21.30
2015,08,24,14,45,21.40
2015,08,24,14,46,21.40
2015,08,24,14,47,21.30
2015,08,24,14,48,21.30
2015,08,24,14,49,21.20
2015,08,24,14,50,21.20
2015,08,24,14,51,21.20
2015,08,24,14,52,21.20
2015,08,24,14,53,21.20
2015,08,24,14,54,21.20
2015,08,24,14,55,21.20
2015,08,24,14,56,21.20
2015,08,24,14,57,21.20
2015,08,24,14,58,21.10
2015,08,24,14,59,21.10
2015,08,24,15,00,21.10
2015,08,24,15,01,21.10
2015,08,24,15,02,21.10
2015,08,24,15,03,21.00
2015,08,24,15,04,21.00
2015,08,24,15,05,21.00
2015,08,24,15,06,21.10
2015,08,24,15,07,21.10
2015,08,24,15,08,21.00
2015,08,24,15,09,21.00
2015,08,24,15,10,20.90
2015,08,24,15,11,20.90
2015,08,24,15,12,20.90
2015,08,24,15,13,20.90
2015,08,24,15,14,20.90
2015,08,24,15,15,20.90
2015,08,24,15,16,20.90
2015,08,24,15,17,20.90
2015,08,24,15,18,20.80
2015,08,24,15,19,20.80
2015,08,24,15,20,20.80
2015,08,24,15,21,20.80
2015,08,24,15,22,20.80
2015,08,24,15,23,20.80
2015,08,24,15,24,20.80
2015,08,24,15,25,20.80
2015,08,24,15,26,20.80
2015,08,24,15,27,20.80
2015,08,24,15,28,20.80
2015,08,24,15,29,20.80
2015,08,24,15,30,20.80
2015,08,24,15,31,20.80
2015,08,24,15,32,20.70
2015,08,24,15,33,20.70
2015,08,24,15,34,20.70
2015,08,24,15,35,20.70
2015,08,24,15,36,20.80
2015,08,24,15,37,20.80
2015,08,24,15,38,20.70
2015,08,24,15,39,20.70
2015,08,24,15,40,20.70
2015,08,24,15,41,20.70
2015,08,24,15,42,20.70
2015,08,24,15,43,20.70
2015,08,24,15,44,20.70
2015,08,24,15,45,20.70
2015,08,24,15,46,20.70
2015,08,24,15,47,20.70
2015,08,24,15,48,20.70
2015,08,24,15,49,20.70
2015,08,24,15,50,20.70
2015,08,24,15,51,20.70
2015,08,24,15,52,20.70
2015,08,24,15,53,20.70
2015,08,24,15,54,20.70
2015,08,24,15,55,20.70
2015,08,24,15,56,20.70
2015,08,24,15,57,20.70
2015,08,24,15,58,20.80
2015,08,24,15,59,20.80
2015,08,24,16,00,20.80
2015,08,24,16,01,20.80
2015,08,24,16,02,20.80
2015,08,24,16,03,20.80
2015,08,24,16,04,20.80
2015,08,24,16,05,20.70
2015,08,24,16,06,20.70
2015,08,24,16,07,20.70
2015,08,24,16,08,20.80
2015,08,24,16,09,20.80
2015,08,24,16,10,20.80
2015,08,24,16,11,20.80
2015,08,24,16,12,20.80
2015,08,24,16,13,20.80
2015,08,24,16,14,20.80
2015,08,24,16,15,20.80
2015,08,24,16,16,20.90
2015,08,24,16,17,20.90
2015,08,24,16,18,20.90
2015,08,24,16,19,20.90
2015,08,24,16,20,20.90
2015,08,24,16,21,20.80
2015,08,24,16,22,20.80
2015,08,24,16,23,20.80
2015,08,24,16,24,20.80
2015,08,24,16,25,20.80
2015,08,24,16,26,20.80
2015,08,24,16,27,20.80
2015,08,24,16,28,20.80
2015,08,24,16,29,20.90
2015,08,24,16,30,20.90
2015,08,24,16,31,21.00
2015,08,24,16,32,21.00
2015,08,24,16,33,21.00
2015,08,24,16,34,21.00
2015,08,24,16,35,20.90
2015,08,24,16,36,20.90
2015,08,24,16,37,20.80
2015,08,24,16,38,20.80
2015,08,24,16,39,20.80
2015,08,24,16,40,20.80
2015,08,24,16,41,20.80
2015,08,24,16,42,20.70
2015,08,24,16,43,20.70
2015,08,24,16,44,20.70
2015,08,24,16,45,20.60
2015,08,24,16,46,20.50
2015,08,24,16,47,20.40
2015,08,24,16,48,20.40
2015,08,24,16,49,20.40
2015,08,24,16,50,20.40
2015,08,24,16,51,20.40
2015,08,24,16,52,20.40
2015,08,24,16,53,20.50
2015,08,24,16,54,20.50
2015,08,24,16,55,20.40
2015,08,24,16,56,20.40
2015,08,24,16,57,20.40
2015,08,24,16,58,20.30
2015,08,24,16,59,20.30
2015,08,24,17,00,20.20
2015,08,24,17,01,20.20
2015,08,24,17,02,20.20
2015,08,24,17,03,20.20
2015,08,24,17,04,20.20
2015,08,24,17,05,20.20
2015,08,24,17,06,20.30
2015,08,24,17,07,20.30
2015,08,24,17,08,20.30
2015,08,24,17,09,20.30
2015,08,24,17,10,20.20
2015,08,24,17,11,20.20
2015,08,24,17,12,20.10
2015,08,24,17,13,20.10
2015,08,24,17,14,20.10
2015,08,24,17,15,20.10
2015,08,24,17,16,20.10
2015,08,24,17,17,20.10
2015,08,24,17,18,20.10
2015,08,24,17,19,20.10
2015,08,24,17,20,20.10
2015,08,24,17,21,20.10
2015,08,24,17,22,20.10
2015,08,24,17,23,20.10
2015,08,24,17,24,20.10
2015,08,24,17,25,20.20